Flag for U.S.A. Weather past 2 weeks in Farmington, New Mexico, U.S.A.

Now
89 °F

Passing clouds.


Feels Like: 86 °F
Forecast: 62 / 85 °F
Wind: 10 mph from West

Location: Four Corners Regional Airport

Current Time: Jul 6, 2015 at 2:59:46 PM

Latest Report: Jul 6, 2015 at 1:53 PM


Visibility: 10 mi

Pressure: 29.89 "Hg (24.94 "Hg at 1617m altitude)

Humidity: 26%

Dew point: 50 °F

Location of FarmingtonLocation

Historic Weather in Farmington — Graph

°F

Farmington temperature yesterday

Maximum temperature yesterday: 88 °F (at 4:53 PM)
Minimum temperature yesterday: 63 °F (at 1:53 AM)
Average temperature yesterday: 73 °F

Past Weeks' High & Low Weather Summary

 TemperatureHumidityPressure
High98 °F (Jun 21, 3:53 PM)87% (Jul 5, 5:53 AM)30.11 "Hg (Jul 5, 5:53 AM)
Low56 °F (Jun 22, 5:53 AM)6% (Jun 22, 3:53 PM)29.73 "Hg (Jul 1, 5:53 PM)
Average78 °F36%29.94 "Hg
* Reported Jun 21 1:53 PM — Jul 6 1:53 PM, Farmington, Weather by CustomWeather, © 2015

Note: Actual official high and low records may vary slightly from our data, if they occured in-between our weather recording intervals... More about our weather records

Advertising

Farmington weather history for previous 24 hours

 ConditionsComfort  
Time TempWeatherWind HumidityBarometerVisibility
1:53 PM
Mon, Jul 6
89 °FPassing clouds.10 mph26%29.89 "Hg10 mi
12:53 PM87 °FSunny.12 mph28%29.93 "Hg10 mi
11:53 AM84 °FSunny.13 mph31%29.94 "Hg10 mi
10:53 AM81 °FSunny.7 mph35%29.96 "Hg10 mi
9:53 AM76 °FSunny.No wind45%29.97 "Hg10 mi
8:53 AM68 °FSunny.No wind63%29.99 "Hg10 mi
7:53 AM64 °FSunny.No wind73%29.99 "Hg10 mi
6:53 AM62 °FClear.No wind78%29.98 "Hg10 mi
5:53 AM62 °FClear.No wind75%29.96 "Hg10 mi
4:53 AM63 °FClear.8 mph68%29.93 "Hg10 mi
3:53 AM63 °FClear.3 mph65%29.93 "Hg10 mi
2:53 AM64 °FClear.7 mph65%29.93 "Hg10 mi
1:53 AM67 °FClear.9 mph55%29.92 "Hg10 mi
12:53 AM66 °FClear.6 mph59%29.94 "Hg10 mi
11:53 PM
Sun, Jul 5
71 °FClear.21 mph44%29.94 "Hg10 mi
10:53 PM70 °FPassing clouds.24 mph59%29.96 "Hg10 mi
9:53 PM76 °FClear.9 mph35%29.90 "Hg10 mi
8:53 PM76 °FSunny.6 mph37%29.88 "Hg10 mi
7:53 PM80 °FSunny.6 mph32%29.86 "Hg10 mi
6:53 PM84 °FSunny.9 mph29%29.84 "Hg10 mi
5:53 PM84 °FPassing clouds.17 mph30%29.85 "Hg10 mi
4:53 PM88 °FPassing clouds.17 mph27%29.84 "Hg10 mi
3:53 PM87 °FPassing clouds.13 mph28%29.86 "Hg10 mi
2:53 PM84 °FScattered clouds.10 mph32%29.90 "Hg10 mi
Weather by CustomWeather, © 2015

See weather overviewHow to use our weather pages